Weather Roundup
Issued by NWS Chicago, IL

Home | Current Version | Previous Version | Graphics & Text | Print | Product List | Glossary On
Versions: 1 2 3 4 5 6 7 8 9 10 11 12 13 14 15 16 17 18 19 20 21 22 23 24 25 26 27 28 29 30 31 32 33 34 35 36 37 38 39 40 41 42 43 44 45 46 47 48 49 50
000
NZUS59 KLOT 241210
HRRLOT

CHICAGO AREA WEATHER ROUNDUP
NATIONAL WEATHER SERVICE CHICAGO/ROMEOVILLE IL
600 AM CST MON NOV 24 2014

NOTE: "FAIR" INDICATES FEW OR NO CLOUDS BELOW 12,000 FEET WITH NO
SIGNIFICANT WEATHER AND/OR OBSTRUCTIONS TO VISIBILITY.

* THESE STATIONS ARE NOT UNDER NWS QUALITY CONTROL. THEY ALSO MAY NOT
  REPORT WEATHER SUCH AS PRECIPITATION OR FOG.

ILZ005-006-012>014-019>023-241300-
NORTHEAST ILLINOIS

CITY           SKY/WX    TMP DP  RH WIND       PRES   REMARKS
OHARE          DRIZZLE   47  46  97 W6        29.06F
6HR MIN TEMP:  47; 6HR MAX TEMP:  49; 6HR PCP:  0.12;

MIDWAY         DRIZZLE   50  48  93 SW6       29.08S FOG
6HR MIN TEMP:  50; 6HR MAX TEMP:  51; 6HR PCP:  0.10;

AURORA         LGT RAIN  47  44  90 W8        29.09R FOG
6HR MIN TEMP:  47; 6HR MAX TEMP:  50; 6HR PCP:  0.10;

LANSING*       CLOUDY    49  48  99 SW6       29.09S FOG
JOLIET*        LGT RAIN  47  46  97 W3        29.09S
WAUKEGAN       CLOUDY    46  45  96 SW5       29.06R FOG
6HR MIN TEMP:  45; 6HR MAX TEMP:  47; 6HR PCP:  0.05;

DUPAGE AIRPORT LGT RAIN  47  45  93 W6        29.07S
6HR MIN TEMP:  47; 6HR MAX TEMP:  49; 6HR PCP:  0.06;

WHEELING       CLOUDY    48  47  96 W5        29.09R FOG
6HR MIN TEMP:  48; 6HR MAX TEMP:  49; 6HR PCP:  0.08;

KANKAKEE*      LGT RAIN  49  48  98 SW6       29.10F
MORRIS*        CLOUDY    44  44 100 W12       29.09S
LEWIS AIRPORT* CLOUDY    47  47 100 W7        29.09S FOG
NORTHERLY IS     N/A     48  46  93 W6          N/A
$$

WIZ051-052-058>065-066-070>072-241300-
SOUTHEAST WISCONSIN

CITY           SKY/WX    TMP DP  RH WIND       PRES   REMARKS
MILWAUKEE      DRIZZLE   47  44  90 W5        29.05R FOG
6HR MIN TEMP:  45; 6HR MAX TEMP:  47; 6HR PCP:  0.07;

KENOSHA*       CLOUDY    46  46 100 W7        29.06R FOG
RACINE*        CLOUDY    47  45  93 W7        29.07R FOG
BURLINGTON     CLOUDY    43  43 100 SW6       29.06S FOG
WAUKESHA       MOCLDY    45  45 100 SW3       29.05R FOG
WEST BEND      CLOUDY    43  43 100 W6        29.03R
$$

INZ001>003-010>013-019-020-241300-
NORTHWEST INDIANA

CITY           SKY/WX    TMP DP  RH WIND       PRES   REMARKS
GARY*          CLOUDY    50  50 100 SW6       29.09S
MICHIGAN CITY* NOT AVBL
RENSSELAER*    NOT AVBL
VALPARAISO     LGT RAIN  49  49 100 S7        29.10S FOG
$$

LMZ740>746-241300-
SOUTHERN LAKE MICHIGAN

STATION/POSITION TIME  SKY/WX   TEMP WIND        PRES    VSBY
                                AIR  DIR/SP/G
                 (UTC)          (F)  (DEG/KT/KT) (MB)    (MI)
HARRISON CRIB    1200            48  240/  8/ 10   N/A
BURNHAM HARBOR   1200            49  240/  2/  8   N/A
CALUMET HARBOR   1200            49  210/  5/  8  984.0R
BURNS HARBOR     NOT AVBL
MICHIGAN CITY    1200            49  170/  8/ 10   N/A
$$

ABBREVIATIONS USED IN REMARKS
   TC - TEMPERATURE IN CELSIUS
  WCI - WIND CHILL INDEX
   HX - HEAT INDEX
  VSB - VISIBILITY
$$



USA.gov is the U.S. government's official web portal to all federal, state and local government web resources and services.